GEFSMA_con_prob3kmehi_234.txt.gz
EHI
2 3 4 2 1 1 4 4 2 1 1 1 0 0 0 0 0 2 7 12 13 11 10 10 9 7 5 4 4 3 3 3 3 3 3 3 1 0 0 0 0 0 0
5 6 5 3 1 1 2 3 3 2 3 3 1 1 1 1 1 3 7 11 13 12 11 12 11 9 7 5 4 3 3 3 3 3 3 3 2 1 0 0 0 0 0
7 7 5 3 2 2 3 5 5 4 3 3 2 2 2 4 5 5 7 10 12 11 12 13 15 13 9 7 5 5 5 5 4 3 3 3 2 1 0 0 0 0 0
8 7 5 3 2 3 4 6 7 4 2 1 1 2 4 8 8 8 8 10 11 10 10 14 18 16 11 8 8 8 8 7 4 3 2 2 2 1 0 0 0 0 0
7 7 7 4 2 3 5 6 7 5 2 1 1 2 5 8 10 10 10 11 11 10 10 14 17 16 13 12 12 11 11 10 7 4 2 2 1 1 1 0 0 0 0
8 9 8 5 3 4 6 8 8 7 5 3 1 1 2 5 9 11 10 10 10 10 10 13 16 15 14 15 16 15 14 14 13 9 6 4 2 2 1 0 0 0 0
9 10 9 6 5 7 9 9 9 8 6 4 2 0 0 2 6 8 8 7 8 8 8 12 16 16 14 14 15 15 16 17 17 15 11 7 3 1 1 0 0 0 0
10 11 11 8 6 9 11 11 11 9 7 5 4 2 1 1 2 3 3 4 5 6 6 10 16 18 16 13 11 11 13 15 16 16 14 10 5 1 0 0 0 0 0
10 11 11 10 9 11 12 13 14 12 8 6 6 5 3 2 2 2 1 1 3 5 6 7 10 14 15 13 10 9 10 10 11 13 13 11 8 5 2 1 0 0 0
10 11 12 13 12 11 11 13 15 15 10 6 6 5 4 4 5 3 1 0 2 5 6 5 6 9 10 10 11 9 7 6 7 8 9 7 6 6 4 1 1 0 0
12 14 15 15 14 13 13 14 15 13 11 8 6 5 4 6 7 5 1 0 1 3 5 4 4 5 6 7 7 7 4 3 3 4 4 3 3 4 3 1 1 1 1
16 16 16 16 16 15 15 15 14 12 9 8 6 5 5 7 7 5 2 1 0 1 3 3 3 3 3 3 3 3 2 1 1 1 2 2 1 1 1 0 0 0 0
21 19 17 16 14 13 14 15 14 11 7 5 5 5 6 7 6 4 2 1 0 0 1 1 2 3 3 2 1 1 1 0 0 0 1 1 1 0 0 0 0 0 0
21 19 17 14 12 10 10 12 11 9 6 4 4 5 6 7 7 5 3 2 1 1 1 1 1 3 3 3 1 0 0 0 0 0 0 0 0 0 0 0 0 0 0
18 17 15 14 11 8 7 8 9 9 8 6 6 6 7 7 6 5 4 3 2 1 1 1 2 2 3 2 1 1 2 1 0 0 0 0 0 0 0 0 0 0 0
18 15 14 13 11 7 7 8 9 9 9 7 6 6 6 7 5 4 4 3 2 1 0 1 2 3 3 2 1 2 3 2 1 0 0 0 0 0 0 0 0 0 0
17 16 14 12 9 7 8 10 10 9 7 6 6 5 4 5 4 3 3 3 1 1 0 1 2 3 3 2 1 1 2 2 1 0 0 0 0 0 0 0 0 0 0
16 17 16 13 10 8 9 11 10 7 5 4 5 3 2 2 3 3 2 2 1 0 0 0 2 3 3 3 1 0 1 1 1 0 0 0 0 0 0 0 0 0 0
18 18 18 16 13 10 9 9 8 6 3 2 2 1 1 1 2 1 1 1 1 1 1 1 2 3 3 3 2 1 0 1 1 0 0 0 0 0 0 0 0 0 0
17 16 17 16 14 11 9 7 7 6 3 1 1 1 1 2 2 1 0 0 1 2 2 2 3 3 3 3 3 2 2 1 1 0 0 0 0 0 0 0 0 0 0
14 14 14 14 12 9 8 6 7 7 4 3 2 2 2 2 1 0 0 0 1 2 3 2 2 3 3 3 3 3 3 2 1 0 0 0 0 0 0 0 0 0 0
17 15 13 10 9 7 5 4 5 5 4 3 3 3 2 1 0 0 0 0 0 1 1 1 1 2 3 3 3 3 3 2 1 0 0 0 0 0 0 0 0 0 0
21 18 12 8 6 5 3 2 2 4 4 3 3 3 2 1 1 0 0 1 1 1 0 0 0 1 3 3 3 3 3 3 2 1 0 0 0 0 0 0 0 0 0
22 18 12 8 6 4 3 2 2 3 3 3 3 3 3 2 1 1 1 2 2 1 0 0 0 1 2 2 3 3 3 3 3 2 1 0 0 0 0 0 0 0 0
19 16 12 9 7 5 4 2 2 2 3 3 3 3 3 2 2 1 2 2 1 1 0 0 0 0 1 1 1 2 3 3 3 3 1 0 0 0 0 0 0 0 0
16 13 11 10 8 6 4 2 2 2 3 3 3 3 2 1 1 1 1 2 1 0 0 0 0 0 0 0 0 1 2 3 3 3 2 1 0 0 0 0 0 0 0

GEFSMA_con_prob3kmehi_240.txt.gz
EHI
0 0 0 0 0 0 0 0 0 0 0 0 0 0 0 0 0 0 2 7 11 13 12 11 9 7 6 6 5 3 2 2 2 2 1 0 0 0 0 0 0 0 0
0 0 0 0 0 0 0 0 0 0 0 0 0 0 0 0 0 0 1 4 9 11 12 12 11 9 8 7 5 3 2 1 2 2 2 1 0 0 0 0 0 0 0
0 0 0 0 0 0 0 0 0 0 0 0 0 0 0 0 0 0 0 1 4 7 10 11 11 9 8 8 7 4 2 1 1 3 3 2 1 0 0 0 0 0 0
0 0 0 0 0 0 0 0 0 0 0 0 0 0 0 0 0 0 0 0 1 3 5 7 8 9 8 8 8 6 4 2 1 2 2 2 1 0 0 0 0 0 0
1 1 0 0 0 0 0 0 0 0 0 0 0 0 0 0 0 0 0 0 0 1 1 3 5 7 7 8 8 8 6 4 2 2 1 1 0 0 0 0 0 0 0
2 2 1 1 1 1 1 0 0 0 0 0 0 0 0 0 0 0 0 0 1 0 0 1 2 3 4 5 6 7 6 5 4 2 1 0 0 0 0 0 0 0 0
3 3 3 2 2 2 2 1 0 0 0 0 0 0 0 0 0 0 0 0 0 0 0 0 0 0 1 2 3 4 5 5 4 3 1 0 0 0 0 0 0 0 0
4 4 4 3 3 3 3 2 1 1 1 0 0 0 0 0 0 0 0 0 0 0 0 0 0 0 0 0 1 1 2 3 3 3 2 1 0 0 0 0 0 0 0
6 5 4 4 4 4 5 3 2 2 2 1 1 1 1 0 1 1 0 0 0 0 0 0 0 0 0 0 0 0 0 1 2 3 3 2 1 0 0 0 0 0 0
6 5 4 5 5 6 6 4 3 3 3 3 2 2 2 2 2 2 1 0 0 0 0 0 0 0 0 0 0 0 0 1 1 2 2 2 1 0 0 0 0 0 0
3 3 4 5 6 6 6 5 4 3 3 3 3 3 3 3 3 2 1 0 0 0 0 0 0 0 0 0 1 0 0 0 0 0 1 1 1 1 0 0 0 0 0
1 2 4 5 4 4 5 5 4 3 3 3 3 3 3 3 2 1 1 0 0 0 0 0 0 0 0 0 0 0 0 0 0 0 0 1 1 1 0 0 0 0 1
0 1 3 3 3 3 4 4 3 3 3 3 3 2 2 1 1 0 0 0 0 0 0 0 0 0 0 0 0 0 0 0 0 0 0 0 0 0 0 0 1 1 2
1 1 2 2 2 3 3 3 3 3 2 2 1 1 1 0 0 0 0 0 0 0 0 0 0 0 0 0 0 0 0 0 0 0 0 0 0 0 0 0 0 1 2
2 2 2 1 2 3 3 3 3 2 1 0 0 0 0 0 0 0 0 0 0 0 0 0 0 0 0 0 0 0 0 0 0 0 0 0 0 0 0 0 0 0 1
4 3 1 1 2 3 3 3 3 1 0 0 0 0 0 0 0 0 0 0 0 0 0 0 0 0 0 0 0 0 0 0 0 0 0 0 0 0 0 0 0 0 0
5 3 1 1 2 3 3 3 2 1 0 0 0 0 0 0 0 0 0 0 0 0 0 0 0 0 0 0 0 0 0 0 0 0 0 0 0 0 0 0 0 0 0
4 3 1 1 2 3 3 3 2 1 0 0 0 0 0 0 0 0 0 0 0 0 0 0 0 0 0 0 0 0 0 0 0 0 0 0 0 0 0 0 0 0 0
3 2 1 1 2 3 3 2 1 1 0 0 0 0 1 1 0 0 0 0 0 0 0 0 0 0 0 0 0 0 0 0 0 0 0 0 0 0 0 0 0 0 0
2 1 0 1 2 3 3 1 1 1 0 0 0 1 2 2 1 0 0 0 0 0 0 0 0 0 0 0 0 0 0 0 0 0 0 0 0 0 0 0 0 0 0
1 0 0 1 3 3 2 1 0 0 0 0 0 1 2 2 1 0 0 0 0 0 0 0 0 0 0 0 0 0 0 0 0 0 0 0 0 0 0 0 0 0 0
0 0 1 3 3 3 2 1 0 0 0 0 0 0 1 1 1 0 0 0 0 0 0 0 0 0 0 0 0 0 0 0 0 0 0 0 0 0 0 0 0 0 0
1 2 3 4 3 1 1 0 0 0 0 0 0 0 0 0 0 0 0 0 0 0 0 0 0 0 0 0 0 0 0 0 0 0 0 0 0 0 0 0 0 0 0
4 4 4 5 3 1 0 0 0 0 0 0 0 0 0 0 0 0 0 0 0 0 0 0 0 0 0 0 0 0 0 0 0 0 0 0 0 0 0 0 0 0 0
5 4 3 3 1 0 0 0 0 0 0 0 0 0 0 0 0 0 0 0 0 0 0 0 0 0 0 0 0 0 0 0 0 0 0 0 0 0 0 0 0 0 0
5 4 2 1 0 0 0 0 0 0 0 0 0 0 0 0 0 0 0 0 0 0 0 0 0 0 0 0 0 0 0 0 0 0 0 0 0 0 0 0 0 0 0

GEFSMA_con_prob3kmehi_246.txt.gz
EHI
0 0 0 0 0 0 0 0 0 0 0 0 0 0 0 0 0 0 0 0 1 2 4 5 5 4 2 1 0 0 0 0 0 0 0 0 0 0 0 0 0 0 0
0 0 0 0 0 0 0 0 0 0 0 0 0 0 0 0 0 0 0 0 1 3 4 5 5 4 3 1 0 0 0 0 0 0 0 0 0 0 0 0 0 0 0
0 0 0 0 0 0 0 0 0 0 0 0 0 0 0 0 0 0 0 0 0 2 4 5 4 4 3 2 1 0 0 0 0 0 0 0 0 0 0 0 0 0 0
0 0 0 0 0 0 0 0 0 0 0 0 0 0 0 0 0 0 0 0 0 0 1 2 3 3 3 2 1 0 0 0 0 0 0 0 0 0 0 0 0 0 0
0 0 0 0 0 0 0 0 0 0 0 0 0 0 0 0 0 0 0 0 0 0 0 0 1 2 1 1 1 1 1 2 1 0 0 0 0 0 0 0 0 0 0
0 0 0 0 0 0 0 0 0 0 0 0 0 0 0 0 0 0 0 0 0 0 0 0 0 0 0 0 1 3 3 3 2 1 0 0 0 0 0 0 0 0 0
0 0 0 0 0 0 0 0 0 0 0 0 0 0 0 0 0 0 0 0 0 0 0 0 0 0 0 0 1 2 3 2 2 1 0 0 0 0 0 0 0 0 0
0 0 0 0 0 0 0 0 0 0 0 0 0 1 1 1 1 1 0 0 0 0 0 0 0 0 0 0 0 1 1 1 1 1 0 0 0 0 0 0 0 0 0
0 0 0 0 0 0 0 0 0 0 0 0 0 1 2 2 2 2 1 0 0 0 0 0 0 0 0 0 0 0 0 0 0 0 0 0 0 0 0 0 0 0 0
0 0 0 0 0 0 0 0 0 0 0 0 0 1 3 3 3 2 1 0 0 0 0 0 0 0 0 0 0 0 0 0 0 0 0 0 0 0 0 0 0 0 0
0 0 0 0 0 0 1 1 0 0 0 0 0 1 2 3 2 1 0 0 0 0 0 0 0 0 0 0 0 0 0 0 0 0 0 0 0 0 0 0 0 0 0
0 0 0 0 0 1 2 2 1 0 0 0 0 1 2 1 1 0 0 0 0 0 0 0 0 0 0 0 0 0 0 0 0 0 0 0 1 0 0 0 0 0 0
0 0 0 0 1 2 3 3 2 1 0 0 0 1 1 0 0 0 0 0 0 0 0 0 0 0 0 0 0 0 0 0 0 0 0 0 0 0 0 0 0 0 0
0 0 0 0 1 2 2 3 3 2 1 0 0 0 0 0 0 0 0 0 0 0 0 0 0 0 0 0 0 0 0 0 0 0 0 0 0 0 0 0 0 0 0
0 0 0 0 0 1 1 1 2 2 1 0 0 0 0 0 0 0 0 0 0 0 0 0 0 0 0 0 0 0 0 0 0 0 0 0 0 0 0 0 0 0 0
0 0 0 0 0 0 0 1 2 1 0 0 0 0 0 0 0 0 0 0 0 0 0 0 0 0 0 0 0 0 0 0 0 0 0 0 0 0 0 0 0 0 0
0 0 0 0 0 0 1 1 1 0 0 0 0 0 0 0 0 0 0 0 0 0 0 0 0 0 0 0 0 0 0 0 0 0 0 0 0 0 0 0 0 0 0
1 0 0 0 0 0 1 1 1 0 0 0 0 0 0 0 0 0 0 0 0 0 0 0 0 0 0 0 0 0 0 0 0 0 0 0 0 0 0 0 0 0 0
1 0 0 0 0 0 1 1 0 0 0 0 0 0 0 0 0 0 0 0 0 0 0 0 0 0 0 0 0 0 0 0 0 0 0 0 0 0 0 0 0 0 0
1 0 0 0 0 0 1 0 0 0 1 0 0 0 0 0 0 0 0 0 0 0 0 0 0 0 0 0 0 0 0 0 0 0 0 0 0 0 0 0 0 0 0
0 0 0 0 0 1 1 0 0 1 1 0 0 0 0 0 0 0 0 0 0 0 0 0 0 0 0 0 0 0 0 0 0 0 0 0 0 0 0 0 0 0 0
0 0 0 0 0 1 0 0 0 1 0 0 0 0 0 0 0 0 0 0 0 0 0 0 0 0 0 0 0 0 0 0 0 0 0 0 0 0 0 0 0 0 0
1 1 1 0 0 0 0 0 0 0 0 0 0 0 0 0 0 0 0 0 0 0 0 0 0 0 0 0 0 0 0 0 0 0 0 0 0 0 0 0 0 0 0
5 4 2 1 1 0 0 0 0 0 0 0 0 0 0 0 0 0 0 0 0 0 0 0 0 0 0 0 0 0 0 0 0 0 0 0 0 0 0 0 0 0 0
7 6 4 2 1 0 0 0 0 0 0 0 0 0 0 0 0 0 0 0 0 0 0 0 0 0 0 0 0 0 0 0 0 0 0 0 0 0 0 0 0 0 0
7 6 4 3 1 0 0 0 0 0 0 0 0 0 0 0 0 0 0 0 0 0 0 0 0 0 0 0 0 0 0 0 0 0 0 0 0 0 0 0 0 0 0

GEFSMA_con_prob3kmehi_252.txt.gz
EHI
0 1 2 2 1 0 0 0 0 0 0 0 0 0 0 0 0 0 1 1 1 0 0 0 1 3 1 0 0 0 0 0 0 0 0 0 0 0 0 0 0 0 0
0 0 1 1 0 0 0 0 0 0 0 0 0 0 0 0 0 0 0 0 0 1 1 1 1 2 1 0 0 0 0 0 0 0 0 0 0 0 0 0 0 0 0
0 0 0 0 0 0 0 0 0 0 0 0 0 0 0 0 0 0 0 0 0 1 2 1 1 0 0 0 0 0 0 0 0 0 0 0 0 0 0 0 0 0 0
0 1 1 1 0 1 0 0 1 1 1 1 1 0 1 2 1 0 0 0 1 1 2 2 1 1 0 1 1 1 1 0 0 0 0 0 0 0 0 0 0 0 0
1 2 2 1 0 0 0 1 2 4 3 2 2 1 2 3 2 1 0 0 1 1 2 3 2 1 0 1 2 3 2 1 0 0 0 0 0 0 0 0 0 0 0
0 1 2 2 0 0 1 1 3 4 4 4 3 1 1 2 2 1 1 0 0 0 1 2 2 1 1 1 2 3 3 2 1 0 0 0 0 0 0 0 0 0 0
0 1 2 2 1 1 2 3 3 4 4 5 4 2 0 1 2 2 2 1 0 0 0 1 2 3 2 2 2 3 4 3 1 0 1 0 0 0 0 0 0 0 0
0 0 1 2 3 3 3 3 4 4 4 5 5 3 1 1 2 2 2 2 1 1 0 1 3 5 4 3 3 2 3 3 1 0 1 1 1 0 0 0 0 0 0
0 0 1 2 4 4 4 3 3 4 4 5 5 3 1 1 1 1 1 1 2 2 2 2 3 4 4 4 4 2 1 1 0 0 0 1 1 1 0 0 0 0 0
0 0 1 2 3 4 4 3 2 3 3 4 3 3 1 1 1 1 1 1 3 3 3 2 2 2 3 4 4 2 0 0 0 0 0 1 1 1 1 1 0 0 0
0 0 0 1 2 3 3 3 3 3 3 2 2 2 2 2 1 1 1 2 3 3 3 3 3 3 3 4 3 2 1 0 0 0 0 0 0 0 0 1 1 0 0
0 0 0 1 1 3 3 4 4 4 3 2 2 2 3 2 2 1 1 1 2 2 3 3 3 3 3 3 2 2 1 0 0 0 0 0 0 0 0 0 0 0 0
1 1 1 1 1 2 3 3 4 4 4 3 1 1 1 1 1 2 1 0 1 1 1 2 3 3 3 2 1 1 1 0 0 0 0 0 0 0 0 0 0 0 0
0 0 0 0 0 1 1 2 3 4 4 3 1 0 0 0 0 1 0 0 0 1 1 1 1 2 1 1 0 0 0 0 0 0 0 0 0 0 0 0 0 0 0
1 1 0 1 1 0 0 1 3 4 5 3 1 1 1 1 1 1 1 1 1 1 0 0 0 0 0 0 0 0 0 0 0 0 0 0 0 0 0 0 0 0 0
6 6 5 4 2 1 0 1 3 5 5 4 2 2 2 2 2 3 2 2 2 2 1 0 1 1 0 0 1 1 1 0 0 0 0 0 0 0 0 0 0 0 0
13 12 11 8 5 3 2 3 4 4 5 5 3 3 2 2 3 3 3 3 3 3 1 0 1 1 1 1 1 2 1 0 0 0 0 0 0 0 0 0 0 0 0
14 14 13 11 8 5 5 5 5 5 5 4 3 3 2 2 3 2 3 3 4 4 2 2 2 1 1 2 2 2 1 0 0 0 0 0 0 0 0 0 0 0 0
13 13 13 13 11 9 8 7 6 6 6 4 2 2 2 2 2 3 4 4 4 4 4 4 4 3 2 2 2 2 0 0 0 0 0 0 0 0 0 0 0 0 0
15 14 15 17 16 14 11 9 8 8 7 4 2 1 1 1 2 3 4 5 4 3 3 4 4 3 1 1 2 1 1 1 1 1 1 1 0 0 0 0 0 0 0
17 18 19 21 20 17 13 9 7 7 7 5 3 2 1 0 1 1 2 4 3 2 1 1 2 1 0 0 1 1 1 1 2 2 2 2 1 1 1 0 0 0 0
21 23 24 23 21 16 10 6 5 6 6 5 3 3 1 0 0 0 0 1 1 0 0 0 0 0 0 0 0 0 0 1 1 2 2 2 2 2 2 1 0 0 0
25 26 26 23 20 15 8 4 3 5 6 4 3 3 2 1 1 0 0 0 0 0 0 0 0 0 0 0 0 0 0 0 0 1 1 1 2 2 2 1 0 0 0
32 31 28 25 21 14 7 2 2 4 5 5 4 4 3 3 2 1 0 0 0 0 0 0 0 0 0 0 0 0 0 0 0 0 0 0 1 1 1 1 0 0 0
38 35 31 27 23 14 6 1 1 3 4 4 4 3 3 2 2 1 0 0 0 0 0 0 0 0 0 0 0 0 0 0 0 0 0 0 0 0 0 1 1 0 0
39 36 31 28 24 15 5 1 1 2 3 3 3 2 1 1 1 0 0 0 0 0 0 0 0 0 0 0 0 0 0 0 0 0 0 0 0 0 0 1 1 1 0

GEFSMA_con_prob3kmehi_258.txt.gz
EHI
4 3 4 3 2 2 3 3 2 1 1 1 1 1 0 1 1 2 6 12 14 14 14 12 7 4 5 5 4 2 1 0 0 0 0 0 0 0 0 0 0 0 0
6 6 5 3 3 3 4 3 2 1 2 1 1 2 2 2 3 3 5 9 12 12 12 11 7 5 7 8 6 3 1 0 0 0 0 0 0 0 0 0 0 0 0
7 8 6 4 4 5 6 4 3 2 2 2 2 4 4 5 6 5 4 6 7 8 9 9 7 7 9 10 8 4 2 1 0 0 0 0 0 0 0 0 0 0 0
6 7 6 5 5 6 7 5 3 3 3 3 5 6 6 6 6 5 4 4 5 6 7 8 8 9 11 12 10 7 4 2 1 0 0 0 0 0 0 0 0 0 0
5 5 5 5 5 6 6 4 4 4 5 5 5 5 5 4 5 5 4 4 5 6 7 8 9 11 12 13 13 11 7 4 3 1 0 0 0 0 0 0 0 0 0
6 5 5 5 5 5 5 4 5 6 6 5 5 5 4 4 5 6 5 5 6 7 7 8 9 10 11 11 12 12 8 5 4 3 1 0 0 0 0 0 0 0 0
7 6 6 5 5 6 7 6 6 7 7 6 5 5 4 5 6 6 6 6 6 6 6 6 9 10 10 8 7 8 8 5 4 3 2 1 0 0 0 0 0 0 0
7 7 6 6 5 7 9 7 6 6 6 5 5 4 3 4 5 5 6 7 6 6 5 5 7 9 10 8 5 5 6 5 4 4 3 2 1 0 0 0 0 0 0
8 8 7 7 7 8 9 9 8 7 6 6 4 3 2 2 3 4 5 6 7 6 5 3 4 7 9 8 6 4 4 4 4 4 4 2 1 0 0 0 0 0 0
13 11 10 10 10 9 9 10 9 8 8 6 5 3 2 3 4 4 5 6 7 6 4 2 4 7 8 8 7 5 3 3 3 3 3 2 1 0 0 0 0 0 0
17 15 13 13 12 11 10 10 9 9 8 6 5 3 2 4 5 5 5 5 6 6 4 3 5 7 8 7 7 5 3 2 1 1 1 2 1 0 0 0 0 0 0
22 19 15 13 12 12 11 10 9 9 8 6 5 4 2 3 4 3 3 4 6 7 5 4 5 5 4 5 5 5 4 2 1 0 0 1 1 0 0 0 0 0 0
25 23 19 14 10 9 10 9 8 9 8 6 4 4 3 3 3 2 2 4 6 7 6 3 2 2 1 2 4 4 3 2 1 0 0 0 0 0 0 0 0 0 0
25 25 22 16 10 7 7 7 8 9 8 6 4 3 3 3 4 3 2 3 4 6 5 2 1 1 2 3 3 2 1 1 0 0 0 0 0 0 0 0 0 0 0
21 23 22 17 13 10 9 9 9 9 8 7 4 3 4 4 5 5 3 2 2 3 4 1 1 2 3 3 2 1 1 0 0 0 0 0 0 0 0 0 0 0 0
20 21 21 19 17 16 16 14 13 12 11 9 6 3 3 3 5 5 4 4 3 3 3 2 1 3 3 3 2 1 2 1 0 0 0 0 0 0 0 0 0 0 0
24 23 20 19 20 22 22 19 16 14 12 10 8 6 4 4 4 4 6 7 6 4 3 3 3 3 3 3 2 2 2 1 0 0 0 0 0 0 0 0 0 0 0
29 26 21 20 21 24 25 22 17 14 12 12 12 11 7 4 3 4 6 8 7 6 5 4 3 3 3 3 3 2 2 1 0 0 0 0 0 0 0 0 0 0 0
30 27 24 22 22 23 25 24 19 15 13 14 14 12 8 4 3 4 6 7 7 7 7 6 4 3 3 3 2 1 1 1 0 0 0 0 0 0 0 0 0 0 0
30 29 28 26 24 23 25 25 22 19 18 18 15 11 7 4 3 4 5 6 6 7 7 6 4 3 3 2 1 0 0 0 0 0 0 0 0 0 0 0 0 0 0
33 34 31 27 25 23 23 24 23 22 22 21 17 11 6 4 3 3 4 4 5 6 5 4 3 2 1 1 0 0 0 0 0 0 0 0 0 0 0 0 0 0 0
39 39 34 28 26 23 21 20 21 22 24 23 20 13 6 3 3 3 2 2 2 3 3 2 2 1 0 0 0 0 0 0 0 0 0 0 0 0 0 0 0 0 0
45 42 36 30 26 21 18 16 16 19 22 23 20 13 6 4 4 4 3 1 1 1 1 1 1 1 1 0 0 0 0 0 0 0 0 0 0 0 0 0 0 0 0
49 45 38 32 26 20 14 11 10 14 18 20 17 11 7 5 5 5 3 2 1 0 0 0 1 1 1 0 0 0 0 0 0 0 0 0 0 0 0 0 0 0 0
50 46 39 31 26 19 12 7 7 12 16 17 15 10 7 5 4 3 3 3 2 0 0 0 0 0 0 0 0 0 0 0 0 0 0 0 0 0 0 0 0 0 0
51 46 37 29 25 20 12 6 5 11 16 16 15 11 6 3 2 1 2 3 2 1 0 0 0 0 0 0 0 0 0 0 0 0 0 0 1 1 1 0 0 0 0